Date String (YYYY-MM-DD hh:mm:ss) UTC,Instrument flags,Ambient pressure (hPa),Sample flow (lpm),Bypass flow (lpm),Sample temperature (°C),Ambient temperature (°C),ASC tube jacket temperature (°C),LED temperature (°C),Box temperature (°C),Sample RH (%),Span deviation,Mass concentration (μg/m³),Mass concentration (μg/m³),Mass concentration (μg/m³)
DateTimeUTC,F1_M11,P_M11,Q1_M11,Q2_M11,T1_M11,T2_M11,T3_M11,T4_M11,T5_M11,U1_M11,ZSPAN_M11,X2_M11,X0_M11,X1_M11
2023-02-20 05:00:00,,0816.2,5.00,0.00,22.2,20.6,00.0,31.0,23.8,09.0,0000.0,0001.68,0004.29,0001.07
2023-02-20 05:01:00,,0816.3,5.00,0.00,22.2,20.5,00.0,31.1,23.8,09.1,0000.0,0001.65,0004.10,0001.06
2023-02-20 05:02:00,,0816.2,5.01,0.00,22.1,20.5,00.0,31.0,23.8,09.1,0000.0,0001.60,0003.87,0001.06
2023-02-20 05:03:00,,0816.2,5.00,0.00,22.1,20.4,00.0,31.0,23.8,09.1,0000.0,0001.59,0003.88,0001.05
2023-02-20 05:04:00,,0816.1,4.99,0.00,22.1,20.4,00.0,31.0,23.8,09.1,0000.0,0001.60,0004.06,0001.06
2023-02-20 05:05:00,,0816.0,5.00,0.00,22.1,20.3,00.0,31.0,23.8,09.2,0000.0,0001.61,0004.05,0001.05
2023-02-20 05:06:00,,0816.0,4.99,0.00,22.1,20.3,00.0,31.0,23.7,09.0,0000.0,0001.63,0004.05,0001.05
2023-02-20 05:07:00,,0816.1,5.01,0.00,22.0,20.2,00.0,31.0,23.7,08.9,0000.0,0001.59,0003.95,0001.05
2023-02-20 05:08:00,,0816.3,4.99,0.00,22.0,20.2,00.0,31.0,23.7,09.2,0000.0,0001.59,0003.32,0001.05
2023-02-20 05:09:00,,0816.4,5.01,0.00,22.0,20.1,00.0,30.9,23.6,09.3,0000.0,0001.61,0003.15,0001.06
2023-02-20 05:10:00,,0816.0,5.00,0.00,21.9,20.2,00.0,30.9,23.5,09.1,0000.0,0001.63,0004.02,0001.07
2023-02-20 05:11:00,,0815.9,4.96,0.00,22.0,21.4,00.0,30.8,23.8,09.0,0000.0,0001.68,0004.13,0001.08
2023-02-20 05:12:00,,0815.7,4.99,0.00,22.1,22.7,00.0,30.8,24.1,08.9,0000.0,0001.69,0004.11,0001.08
2023-02-20 05:13:00,,0815.8,4.99,0.00,22.3,22.9,00.0,30.9,24.3,09.0,0000.0,0001.69,0004.11,0001.08
2023-02-20 05:14:00,,0815.9,4.99,0.00,22.3,22.3,00.0,31.0,24.2,09.0,0000.0,0001.69,0004.16,0001.09
2023-02-20 05:15:00,,0816.0,5.01,0.00,22.3,21.8,00.0,31.0,24.1,08.9,0000.0,0001.64,0004.29,0001.07
2023-02-20 05:16:00,,0816.0,5.00,0.00,22.2,21.4,00.0,31.0,24.0,09.0,0000.0,0001.67,0004.79,0001.07
2023-02-20 05:17:00,,0816.0,5.01,0.00,22.2,21.0,00.0,31.0,23.9,09.0,0000.0,0001.67,0004.88,0001.07
2023-02-20 05:18:00,,0816.1,5.00,0.00,22.2,20.8,00.0,31.0,23.9,09.0,0000.0,0001.71,0005.02,0001.06
2023-02-20 05:19:00,,0816.3,5.01,0.00,22.2,20.7,00.0,31.1,23.8,08.9,0000.0,0001.75,0005.15,0001.06
2023-02-20 05:20:00,,0816.5,5.02,0.00,22.1,20.5,00.0,31.1,23.7,09.0,0000.0,0001.77,0005.04,0001.06
2023-02-20 05:21:00,,0816.4,4.99,0.00,22.1,20.4,00.0,31.0,23.8,09.0,0000.0,0001.76,0004.04,0001.06
2023-02-20 05:22:00,,0816.4,4.99,0.00,22.1,20.2,00.0,31.0,23.7,09.0,0000.0,0001.73,0003.99,0001.05
2023-02-20 05:23:00,,0816.5,5.01,0.00,22.0,20.2,00.0,31.0,23.7,09.0,0000.0,0001.73,0004.01,0001.05
2023-02-20 05:24:00,,0816.6,5.02,0.00,22.0,20.2,00.0,31.0,23.7,09.0,0000.0,0001.70,0003.96,0001.05
2023-02-20 05:25:00,,0816.9,5.02,0.00,22.0,20.2,00.0,31.0,23.7,09.0,0000.0,0001.68,0003.91,0001.04
2023-02-20 05:26:00,,0816.8,4.99,0.00,22.0,20.2,00.0,31.0,23.7,09.1,0000.0,0001.75,0003.89,0001.05
2023-02-20 05:27:00,,0816.9,5.00,0.00,22.0,20.2,00.0,31.0,23.7,09.0,0000.0,0001.74,0003.45,0001.03
2023-02-20 05:28:00,,0816.9,5.00,0.00,22.0,20.2,00.0,31.0,23.6,08.9,0000.0,0001.73,0003.58,0001.03
2023-02-20 05:29:00,,0816.8,5.00,0.00,21.9,20.0,00.0,30.9,23.4,09.0,0000.0,0001.77,0004.71,0001.03
2023-02-20 05:30:00,,0816.7,5.00,0.00,21.9,20.4,00.0,30.9,23.5,09.0,0000.0,0001.79,0004.71,0001.03
2023-02-20 05:31:00,,0816.7,5.00,0.00,22.0,21.7,00.0,30.8,23.9,08.9,0000.0,0001.73,0004.44,0001.02
2023-02-20 05:32:00,,0816.6,5.02,0.00,22.1,22.7,00.0,30.8,24.1,08.9,0000.0,0001.72,0004.42,0001.02
2023-02-20 05:33:00,,0816.5,4.96,0.00,22.2,22.5,00.0,30.9,24.1,08.9,0000.0,0001.71,0004.37,0001.00
2023-02-20 05:34:00,,0816.7,4.99,0.00,22.2,21.9,00.0,30.9,24.0,08.9,0000.0,0001.67,0004.56,0001.00
2023-02-20 05:35:00,,0816.7,5.01,0.00,22.2,21.4,00.0,31.0,23.9,08.9,0000.0,0001.72,0004.82,0000.99
2023-02-20 05:36:00,,0816.5,4.99,0.00,22.2,21.1,00.0,31.0,23.9,08.9,0000.0,0001.72,0005.06,0000.98
2023-02-20 05:37:00,,0816.4,5.00,0.00,22.1,20.8,00.0,31.0,23.7,08.9,0000.0,0001.70,0004.99,0000.97
2023-02-20 05:38:00,,0816.4,5.01,0.00,22.1,20.6,00.0,31.0,23.7,08.9,0000.0,0001.69,0004.94,0000.98
2023-02-20 05:39:00,,0816.4,4.99,0.00,22.0,20.4,00.0,31.0,23.7,08.9,0000.0,0001.70,0004.88,0000.98
2023-02-20 05:40:00,,0816.3,5.00,0.00,22.0,20.3,00.0,31.0,23.6,08.9,0000.0,0001.64,0003.70,0000.99
2023-02-20 05:41:00,,0816.4,5.00,0.00,22.0,20.2,00.0,31.0,23.6,08.9,0000.0,0001.57,0003.50,0000.97
2023-02-20 05:42:00,,0816.6,5.00,0.00,22.0,20.2,00.0,31.0,23.6,09.0,0000.0,0001.61,0003.62,0000.96
2023-02-20 05:43:00,,0816.7,5.00,0.00,22.0,20.2,00.0,31.0,23.6,08.9,0000.0,0001.62,0003.83,0000.95
2023-02-20 05:44:00,,0816.5,5.00,0.00,21.9,20.1,00.0,30.9,23.6,08.9,0000.0,0001.64,0004.02,0000.96
2023-02-20 05:45:00,,0816.6,5.00,0.00,21.9,20.1,00.0,30.9,23.5,08.9,0000.0,0001.68,0003.95,0000.97
2023-02-20 05:46:00,,0816.9,5.00,0.00,21.9,20.0,00.0,30.9,23.5,09.1,0000.0,0001.62,0003.78,0000.96
2023-02-20 05:47:00,,0816.9,5.00,0.00,21.9,20.0,00.0,30.9,23.5,09.6,0000.0,0001.61,0003.47,0000.96
2023-02-20 05:48:00,,0816.8,5.00,0.00,21.9,21.0,00.0,30.8,23.7,09.9,0000.0,0001.61,0003.50,0000.96
2023-02-20 05:49:00,,0816.9,4.96,0.00,22.0,22.2,00.0,30.8,24.0,09.7,0000.0,0001.61,0003.44,0000.96
2023-02-20 05:50:00,,0816.9,4.98,0.00,22.2,22.8,00.0,30.8,24.2,09.8,0000.0,0001.61,0003.46,0000.96
2023-02-20 05:51:00,,0817.0,5.00,0.00,22.2,22.1,00.0,30.9,24.0,09.9,0000.0,0001.59,0003.44,0000.96
2023-02-20 05:52:00,,0816.9,5.01,0.00,22.1,21.5,00.0,30.9,23.8,09.9,0000.0,0001.60,0003.52,0000.97
2023-02-20 05:53:00,,0817.0,5.01,0.00,22.1,20.9,00.0,30.9,23.7,10.0,0000.0,0001.60,0003.49,0001.00
2023-02-20 05:54:00,,0817.1,5.00,0.00,22.0,20.5,00.0,30.9,23.5,09.9,0000.0,0001.58,0003.26,0001.01
2023-02-20 05:55:00,,0817.0,5.00,0.00,21.9,20.3,00.0,30.9,23.5,09.8,0000.0,0001.57,0003.18,0001.01
2023-02-20 05:56:00,,0816.7,5.00,0.00,21.9,20.2,00.0,30.9,23.5,09.5,0000.0,0001.58,0003.19,0001.01
2023-02-20 05:57:00,,0816.7,5.01,0.00,21.9,20.1,00.0,30.9,23.5,09.2,0000.0,0001.63,0003.25,0001.02
2023-02-20 05:58:00,,0816.9,5.00,0.00,21.9,20.0,00.0,30.9,23.5,09.0,0000.0,0001.62,0003.24,0001.02
2023-02-20 05:59:00,,0816.9,5.00,0.00,21.9,20.0,00.0,30.9,23.5,09.0,0000.0,0001.61,0003.34,0001.03
